Previsão horária em Jurczyce

Hoje, 22 Junho, Terça-feira

Tempo Temperatura Precipitação Vento Pressão Humidade
00:00 +21°C° 0.1 mm 1 m/s 730 mmHg 91%
01:00 +21°C° 0.1 mm 1 m/s 730 mmHg 92%
02:00 +21°C° 0.1 mm 1 m/s 730 mmHg 91%
03:00 +20°C° 0.1 mm 1 m/s 730 mmHg 91%
04:00 +20°C° 0.1 mm 1 m/s 730 mmHg 90%
05:00 +20°C° 0 mm 0 m/s 730 mmHg 85%
06:00 +21°C° 0 mm 0 m/s 730 mmHg 80%
07:00 +23°C° 0 mm 0 m/s 731 mmHg 75%
08:00 +26°C° 0.3 mm 1 m/s 731 mmHg 71%
09:00 +28°C° 0.3 mm 1 m/s 731 mmHg 67%
10:00 +29°C° 0.3 mm 2 m/s 731 mmHg 63%
11:00 +29°C° 0.8 mm 2 m/s 731 mmHg 65%
12:00 +28°C° 0.8 mm 2 m/s 731 mmHg 67%
13:00 +28°C° 0.8 mm 1 m/s 732 mmHg 69%
14:00 +28°C° 0.5 mm 1 m/s 732 mmHg 67%
15:00 +29°C° 0.5 mm 1 m/s 732 mmHg 66%
16:00 +29°C° 0.5 mm 1 m/s 732 mmHg 64%
17:00 +28°C° 0.8 mm 1 m/s 732 mmHg 69%
18:00 +25°C° 0.8 mm 0 m/s 732 mmHg 74%
19:00 +23°C° 0.8 mm 0 m/s 732 mmHg 79%
20:00 +24°C° 0.6 mm 1 m/s 732 mmHg 83%
21:00 +23°C° 0.6 mm 1 m/s 732 mmHg 88%
22:00 +21°C° 0.6 mm 1 m/s 733 mmHg 92%
23:00 +21°C° 0.5 mm 1 m/s 733 mmHg 94%

Amanhã, 23 Junho, Quarta-feira

Tempo Temperatura Precipitação Vento Pressão Humidade
00:00 +21°C° 0.5 mm 1 m/s 733 mmHg 95%
01:00 +20°C° 0.5 mm 1 m/s 733 mmHg 97%
02:00 +20°C° 0.6 mm 1 m/s 733 mmHg 97%
03:00 +20°C° 0.6 mm 1 m/s 733 mmHg 97%
04:00 +20°C° 0.6 mm 1 m/s 733 mmHg 97%
05:00 +21°C° 0.2 mm 1 m/s 734 mmHg 96%
06:00 +21°C° 0.2 mm 1 m/s 734 mmHg 95%
07:00 +20°C° 0.2 mm 2 m/s 735 mmHg 94%
08:00 +21°C° 0 mm 2 m/s 735 mmHg 92%
09:00 +21°C° 0 mm 2 m/s 735 mmHg 89%
10:00 +23°C° 0 mm 2 m/s 736 mmHg 87%
11:00 +23°C° 0.1 mm 2 m/s 736 mmHg 86%
12:00 +24°C° 0.1 mm 2 m/s 736 mmHg 84%
13:00 +24°C° 0.1 mm 2 m/s 736 mmHg 83%
14:00 +24°C° 0 mm 2 m/s 736 mmHg 82%
15:00 +24°C° 0 mm 2 m/s 736 mmHg 81%
16:00 +24°C° 0 mm 2 m/s 736 mmHg 81%
17:00 +24°C° 0.1 mm 2 m/s 736 mmHg 84%
18:00 +23°C° 0.1 mm 2 m/s 736 mmHg 87%
19:00 +23°C° 0.1 mm 2 m/s 736 mmHg 90%
20:00 +21°C° 0 mm 2 m/s 736 mmHg 91%
21:00 +21°C° 0 mm 1 m/s 736 mmHg 93%
22:00 +21°C° 0 mm 1 m/s 736 mmHg 95%
23:00 +20°C° 0 mm 1 m/s 736 mmHg 96%

Depois de amanhã, 24 Junho, Quinta-feira

Tempo Temperatura Precipitação Vento Pressão Humidade
00:00 +20°C° 0 mm 1 m/s 736 mmHg 96%
01:00 +17°C° 0 mm 0 m/s 736 mmHg 97%
02:00 +17°C° 0 mm 0 m/s 736 mmHg 97%
03:00 +17°C° 0 mm 0 m/s 736 mmHg 97%
04:00 +17°C° 0 mm 0 m/s 736 mmHg 97%
05:00 +18°C° 0.6 mm 0 m/s 736 mmHg 95%
06:00 +19°C° 0.6 mm 0 m/s 736 mmHg 93%
07:00 +20°C° 0.6 mm 0 m/s 736 mmHg 91%
08:00 +24°C° 0.2 mm 1 m/s 736 mmHg 86%
09:00 +25°C° 0.2 mm 1 m/s 736 mmHg 81%
10:00 +26°C° 0.2 mm 1 m/s 736 mmHg 75%
11:00 +28°C° 0.1 mm 1 m/s 736 mmHg 71%
12:00 +29°C° 0.1 mm 1 m/s 736 mmHg 67%
13:00 +30°C° 0.1 mm 2 m/s 735 mmHg 63%
14:00 +30°C° 0.3 mm 2 m/s 735 mmHg 62%
15:00 +30°C° 0.3 mm 2 m/s 735 mmHg 62%
16:00 +30°C° 0.3 mm 2 m/s 735 mmHg 62%
17:00 +29°C° 0.4 mm 2 m/s 734 mmHg 69%
18:00 +28°C° 0.4 mm 2 m/s 734 mmHg 75%
19:00 +26°C° 0.4 mm 2 m/s 734 mmHg 82%
20:00 +25°C° 0 mm 2 m/s 733 mmHg 85%
21:00 +24°C° 0 mm 2 m/s 733 mmHg 88%
22:00 +23°C° 0 mm 2 m/s 733 mmHg 90%
23:00 +23°C° 0.1 mm 2 m/s 732 mmHg 91%

25 Junho, Sexta-feira

Tempo Temperatura Precipitação Vento Pressão Humidade
00:00 +21°C° 0.1 mm 2 m/s 732 mmHg 91%
01:00 +21°C° 0.1 mm 3 m/s 732 mmHg 92%
02:00 +20°C° 0.1 mm 2 m/s 732 mmHg 93%
03:00 +19°C° 0.1 mm 2 m/s 732 mmHg 94%
04:00 +20°C° 0.1 mm 1 m/s 732 mmHg 95%
05:00 +20°C° 0 mm 2 m/s 732 mmHg 91%
06:00 +21°C° 0 mm 3 m/s 733 mmHg 88%
07:00 +22°C° 0 mm 3 m/s 733 mmHg 85%
08:00 +22°C° 0 mm 4 m/s 733 mmHg 81%
09:00 +23°C° 0 mm 4 m/s 734 mmHg 77%
10:00 +25°C° 0 mm 5 m/s 734 mmHg 73%
11:00 +25°C° 0.1 mm 5 m/s 734 mmHg 70%
12:00 +26°C° 0.1 mm 5 m/s 734 mmHg 66%
13:00 +27°C° 0.1 mm 5 m/s 734 mmHg 63%
14:00 +27°C° 0.1 mm 5 m/s 735 mmHg 62%
15:00 +27°C° 0.1 mm 4 m/s 735 mmHg 62%
16:00 +27°C° 0.1 mm 4 m/s 735 mmHg 62%
17:00 +25°C° 0.1 mm 3 m/s 735 mmHg 69%
18:00 +24°C° 0.1 mm 3 m/s 735 mmHg 76%
19:00 +21°C° 0.1 mm 2 m/s 735 mmHg 83%
20:00 +20°C° 0 mm 2 m/s 735 mmHg 86%
21:00 +20°C° 0 mm 1 m/s 736 mmHg 89%
22:00 +19°C° 0 mm 1 m/s 736 mmHg 92%
23:00 +19°C° 0 mm 1 m/s 736 mmHg 92%

26 Junho, Sábado

Tempo Temperatura Precipitação Vento Pressão Humidade
00:00 +19°C° 0 mm 1 m/s 736 mmHg 92%
01:00 +19°C° 0 mm 1 m/s 736 mmHg 92%
02:00 +19°C° 0 mm 1 m/s 736 mmHg 93%
03:00 +19°C° 0 mm 1 m/s 736 mmHg 93%
04:00 +18°C° 0 mm 1 m/s 736 mmHg 94%
05:00 +18°C° 0.2 mm 1 m/s 736 mmHg 94%
06:00 +18°C° 0.2 mm 1 m/s 737 mmHg 93%
07:00 +18°C° 0.2 mm 1 m/s 737 mmHg 93%
08:00 +18°C° 0.2 mm 1 m/s 737 mmHg 91%
09:00 +19°C° 0.2 mm 1 m/s 737 mmHg 89%
10:00 +19°C° 0.2 mm 1 m/s 737 mmHg 87%
11:00 +19°C° 0.3 mm 1 m/s 737 mmHg 86%
12:00 +20°C° 0.3 mm 1 m/s 737 mmHg 85%
13:00 +20°C° 0.3 mm 1 m/s 737 mmHg 83%
14:00 +20°C° 0.1 mm 1 m/s 737 mmHg 81%
15:00 +21°C° 0.1 mm 1 m/s 737 mmHg 80%
16:00 +21°C° 0.1 mm 1 m/s 736 mmHg 78%
17:00 +21°C° 0.1 mm 1 m/s 736 mmHg 80%
18:00 +20°C° 0.1 mm 1 m/s 736 mmHg 83%
19:00 +20°C° 0.1 mm 1 m/s 736 mmHg 85%
20:00 +19°C° 0.1 mm 1 m/s 736 mmHg 87%
21:00 +18°C° 0.1 mm 1 m/s 736 mmHg 88%
22:00 +18°C° 0.1 mm 1 m/s 736 mmHg 90%
23:00 +16°C° 0 mm 1 m/s 736 mmHg 91%

27 Junho, Domingo

Tempo Temperatura Precipitação Vento Pressão Humidade
00:00 +16°C° 0 mm 1 m/s 736 mmHg 92%
01:00 +15°C° 0 mm 1 m/s 736 mmHg 93%
02:00 +15°C° 0 mm 1 m/s 736 mmHg 93%
03:00 +15°C° 0 mm 1 m/s 736 mmHg 93%
04:00 +15°C° 0 mm 1 m/s 736 mmHg 94%
05:00 +16°C° 0 mm 1 m/s 737 mmHg 90%
06:00 +18°C° 0 mm 1 m/s 737 mmHg 87%
07:00 +19°C° 0 mm 1 m/s 737 mmHg 83%
08:00 +21°C° 0.1 mm 1 m/s 737 mmHg 77%
09:00 +22°C° 0.1 mm 1 m/s 737 mmHg 71%
10:00 +23°C° 0.1 mm 1 m/s 737 mmHg 65%
11:00 +24°C° 0.4 mm 1 m/s 737 mmHg 65%
12:00 +24°C° 0.4 mm 1 m/s 737 mmHg 65%
13:00 +24°C° 0.4 mm 1 m/s 737 mmHg 65%
14:00 +24°C° 0.6 mm 1 m/s 737 mmHg 66%
15:00 +24°C° 0.6 mm 1 m/s 737 mmHg 66%
16:00 +24°C° 0.6 mm 1 m/s 737 mmHg 67%
17:00 +23°C° 0.3 mm 1 m/s 737 mmHg 71%
18:00 +22°C° 0.3 mm 1 m/s 737 mmHg 75%
19:00 +19°C° 0.3 mm 0 m/s 737 mmHg 80%
20:00 +20°C° 0 mm 1 m/s 737 mmHg 82%
21:00 +19°C° 0 mm 1 m/s 737 mmHg 85%
22:00 +18°C° 0 mm 1 m/s 737 mmHg 87%
23:00 +16°C° 0 mm 1 m/s 737 mmHg 88%
Mostrar mais

Necessitamos do seu Consentimento

A Meteoprog e os seus Fornecedores de Serviços podem armazenar e aceder a dados pessoais como cookies, identificadores do dispositivo ou outras tecnologias semelhantes existentes no seu dispositivo e processar estes dados para personalizar conteúdos e anúncios, assim como funcionalidades nas redes sociais e análise de tráfego.

  • Armazenar e/ou aceder a informações no seu dispositivo

    Os cookies, identificadores do dispositivo ou outras informações podem ser armazenados ou acedidos no seu dispositivo, para os fins acima indicados.

  • Anúncios e conteúdos personalizados, medição de anúncios e conteúdos, dados sobre o público-alvo e desenvolvimento de produtos

    Os anúncios e os conteúdos podem ser personalizados com base num perfil. Podem ser adicionados dados adicionais para uma maior personalização dos anúncios e dos conteúdos. A eficácia dos anúncios e dos conteúdos pode ser medida. Podem ser obtidas informações sobre o público que visualizou os anúncios e os conteúdos. Estes dados podem ser usados para desenvolver ou melhorar sistemas, softwares ou a experiência do utilizador.

Ao clicar em "Eu concordo”, permitirá o uso de cookies, identificadores do dispositivo e web beacons mencionados ou outras tecnologias semelhantes. As configurações do navegador do seu dispositivo podem ser alteradas.

Para certos fins, podem ser invocados interesses legítimos ao invés de consentimento. Pode ler mais informação sobre este assunto na nossa Política de Privacidade e Cookies.